{"data":{"norad_id":63886,"epoch":"2026-09-20T14:04:19.426080Z","epoch_age_seconds":139521,"freshness":"FRESH","line1":"1 63886U 25094Y   26263.58633595  .00003080  00000+0  11161-3 0  9997","line2":"2 63886  69.9994 100.7876 0003041 267.1902  92.8925 15.29559454 76459","mean_motion":15.29559454,"eccentricity":0.0003041,"inclination_deg":69.9994,"raan_deg":100.7876,"arg_perigee_deg":267.1902,"mean_anomaly_deg":92.8925,"bstar":0.00011161,"rev_number":7645,"period_min":94.144754964196,"perigee_km":475.04360555662,"apogee_km":479.21297790705,"semimajor_km":6855.2652917318,"source":"CELESTRAK","updated_at":"2026-09-21T09:00:35.141625Z"}}